Location: Krasnoyarskiy Pitomnik
(51.1333°N, 71.6167°E)
Time: 18:47:05
(UTC+00:00)

Tiros 1 - Visible Passes

Search period start: 19 April 2024 00:00
Search period end: 29 April 2024 00:00
Orbit: 625 x 657 km, 48.4° (Epoch: 19 April)

Date Brightness Start Highest point End Pass type
(mag) Time Alt. Az. Time Alt. Az. Time Alt. Az.
19 Apr 7.6 21:01:17 46° SE 21:01:17 46° SE 21:05:04 10° E visible
19 Apr 7.1 22:38:49 16° W 22:42:24 62° S 22:46:57 10° ESE visible
20 Apr 9.5 19:46:32 13° E 19:46:32 13° E 19:47:06 10° E visible
20 Apr 7.1 21:24:03 56° SSW 21:24:37 61° S 21:29:09 10° E visible
20 Apr 7.3 23:01:56 10° W 23:06:25 52° SSW 23:10:53 10° ESE visible
21 Apr 8.7 20:09:19 24° E 20:09:19 24° E 20:11:17 10° E visible
21 Apr 7.1 21:46:50 35° WSW 21:48:39 62° S 21:53:12 10° ESE visible
21 Apr 7.7 23:26:05 10° W 23:30:21 38° SSW 23:34:36 10° SE visible
22 Apr 7.8 20:32:09 42° ESE 20:32:09 42° ESE 20:35:22 10° E visible
22 Apr 7.2 22:09:40 20° W 22:12:40 54° SSW 22:17:09 10° ESE visible
23 Apr 7.0 20:55:02 62° S 20:55:02 62° S 20:59:26 10° E visible
23 Apr 7.5 22:32:34 12° W 22:36:36 41° SSW 22:40:55 10° SE visible
24 Apr 9.2 19:40:30 17° E 19:40:30 17° E 19:41:36 10° E visible
24 Apr 7.1 21:18:03 48° SW 21:18:53 57° S 21:23:24 10° ESE visible
24 Apr 8.0 22:56:32 10° W 23:00:26 27° SSW 23:04:18 10° SSE visible
25 Apr 8.6 20:03:43 24° ESE 20:03:43 24° ESE 20:05:38 10° E visible
25 Apr 7.4 21:41:16 32° WSW 21:42:50 44° SSW 21:47:11 10° SE visible
26 Apr 8.3 20:27:19 28° ESE 20:27:19 28° ESE 20:29:37 10° ESE visible
26 Apr 7.9 22:04:55 23° WSW 22:06:40 30° SSW 22:10:39 10° SSE visible
27 Apr 8.7 15:41:45 10° S 15:44:18 15° SE 15:44:18 15° SE visible
27 Apr 9.1 17:21:08 10° SW 17:22:02 15° SW 17:22:02 15° SW visible
27 Apr 8.6 20:51:36 23° SE 20:51:36 23° SE 20:53:27 10° SE visible
27 Apr 8.4 22:29:15 17° SW 22:30:22 18° SW 22:33:31 10° S visible
28 Apr 8.1 16:04:07 10° SSW 16:07:56 25° SSE 16:09:48 19° ESE visible
28 Apr 8.2 17:44:52 10° WSW 17:47:29 31° SW 17:47:29 31° SW visible
28 Apr 9.4 21:16:50 11° SE 21:16:50 11° SE 21:16:59 10° SE visible
